Location: Lancaster
(34.6980°N, 118.1360°W)
Time: 00:24:18
(UTC-08:00)

Hubble Space Telescope - Pass Details

Date: 16 November 2017
Orbit: 537 x 541 km, 28.5° (Epoch: 20 November)

Event Time Altitude Azimuth Distance (km) Brightness Sun altitude
Exits shadow 04:58:05 - 209° (SSW) 1,900 3.4 -18.5°
Reaches altitude 10° 04:58:32 10° 205° (SSW) 1,777 3.3 -18.4°
Maximum altitude 05:01:19 18° 162° (SSE) 1,362 3.2 -17.8°
Drops below altitude 10° 05:04:06 10° 119° (ESE) 1,781 4.6 -17.3°
Sets 05:06:56 0° 99° (E) 2,674 6.2 -16.7°
